QPF
0.02 0.02 0.02 0.01 0.01 0.01 0.00 0.00 0.00 0.00 0.01 0.01 0.01 0.02 0.02 0.04 0.05 0.07 0.12 0.12 0.14 0.16 0.16 0.20 0.26 0.29 0.24 0.16 0.09 0.04 0.02 0.02 0.02 0.01 0.00 0.00 0.00 0.00 0.00 0.00 0.00 0.00 0.00
0.02 0.02 0.01 0.01 0.01 0.00 0.01 0.01 0.01 0.02 0.03 0.04 0.07 0.07 0.05 0.05 0.06 0.08 0.09 0.10 0.11 0.14 0.17 0.22 0.26 0.31 0.34 0.28 0.19 0.13 0.08 0.05 0.04 0.03 0.02 0.01 0.00 0.00 0.00 0.00 0.00 0.00 0.00
0.01 0.01 0.01 0.01 0.01 0.01 0.01 0.03 0.05 0.08 0.10 0.14 0.16 0.11 0.08 0.06 0.05 0.06 0.08 0.10 0.11 0.12 0.13 0.16 0.19 0.24 0.29 0.30 0.30 0.27 0.23 0.18 0.13 0.09 0.06 0.03 0.01 0.00 0.00 0.00 0.00 0.00 0.00
0.00 0.00 0.00 0.01 0.01 0.02 0.04 0.10 0.17 0.26 0.31 0.32 0.24 0.13 0.08 0.07 0.07 0.07 0.08 0.09 0.08 0.09 0.09 0.10 0.12 0.13 0.17 0.23 0.30 0.35 0.39 0.35 0.26 0.18 0.12 0.07 0.03 0.02 0.01 0.00 0.00 0.00 0.00
0.00 0.01 0.01 0.02 0.03 0.07 0.14 0.26 0.42 0.57 0.55 0.41 0.27 0.14 0.10 0.09 0.07 0.06 0.06 0.06 0.08 0.08 0.08 0.08 0.07 0.06 0.08 0.13 0.23 0.30 0.38 0.41 0.37 0.27 0.21 0.16 0.09 0.04 0.02 0.01 0.00 0.00 0.00
0.02 0.04 0.05 0.07 0.09 0.15 0.27 0.41 0.54 0.62 0.55 0.38 0.23 0.13 0.10 0.07 0.06 0.04 0.04 0.04 0.04 0.05 0.05 0.04 0.04 0.04 0.05 0.09 0.14 0.22 0.30 0.37 0.40 0.37 0.29 0.22 0.16 0.10 0.06 0.03 0.01 0.00 0.00
0.06 0.10 0.15 0.21 0.24 0.28 0.35 0.42 0.45 0.47 0.42 0.29 0.17 0.10 0.08 0.05 0.04 0.02 0.02 0.01 0.01 0.02 0.02 0.02 0.03 0.02 0.02 0.03 0.07 0.10 0.16 0.26 0.35 0.40 0.37 0.29 0.19 0.14 0.11 0.08 0.05 0.03 0.01
0.13 0.20 0.29 0.35 0.38 0.37 0.33 0.35 0.35 0.34 0.26 0.17 0.10 0.07 0.05 0.04 0.02 0.01 0.01 0.00 0.00 0.00 0.00 0.01 0.01 0.01 0.01 0.02 0.03 0.04 0.08 0.13 0.21 0.29 0.31 0.28 0.22 0.15 0.11 0.09 0.08 0.05 0.02
0.16 0.25 0.36 0.46 0.51 0.47 0.39 0.29 0.25 0.22 0.16 0.11 0.08 0.06 0.05 0.04 0.02 0.01 0.01 0.01 0.00 0.00 0.00 0.00 0.00 0.00 0.01 0.01 0.01 0.03 0.05 0.06 0.11 0.17 0.23 0.22 0.20 0.17 0.13 0.11 0.10 0.08 0.04
0.18 0.28 0.46 0.62 0.66 0.54 0.43 0.31 0.22 0.17 0.13 0.09 0.07 0.06 0.05 0.04 0.02 0.01 0.01 0.00 0.00 0.00 0.00 0.00 0.00 0.00 0.00 0.00 0.00 0.00 0.01 0.02 0.04 0.09 0.15 0.17 0.18 0.16 0.12 0.11 0.11 0.09 0.06
0.18 0.26 0.39 0.50 0.52 0.42 0.32 0.23 0.18 0.15 0.13 0.11 0.09 0.06 0.04 0.03 0.02 0.01 0.01 0.00 0.00 0.00 0.00 0.00 0.00 0.00 0.00 0.00 0.00 0.00 0.00 0.01 0.02 0.03 0.05 0.08 0.12 0.15 0.13 0.12 0.12 0.11 0.08
0.13 0.16 0.20 0.23 0.24 0.21 0.18 0.14 0.12 0.14 0.14 0.13 0.11 0.07 0.05 0.03 0.02 0.01 0.01 0.00 0.00 0.00 0.00 0.00 0.00 0.00 0.00 0.00 0.00 0.00 0.00 0.00 0.00 0.00 0.01 0.03 0.06 0.08 0.11 0.12 0.12 0.13 0.13
0.09 0.08 0.09 0.10 0.10 0.08 0.08 0.09 0.10 0.12 0.13 0.14 0.15 0.10 0.06 0.04 0.03 0.02 0.01 0.01 0.00 0.00 0.01 0.00 0.00 0.00 0.00 0.00 0.00 0.00 0.00 0.00 0.00 0.00 0.00 0.01 0.02 0.03 0.06 0.10 0.12 0.14 0.17
0.10 0.07 0.06 0.06 0.06 0.05 0.05 0.07 0.09 0.11 0.16 0.21 0.22 0.19 0.13 0.08 0.06 0.04 0.03 0.02 0.01 0.01 0.01 0.01 0.01 0.01 0.01 0.01 0.01 0.01 0.00 0.00 0.00 0.00 0.00 0.00 0.01 0.02 0.03 0.06 0.09 0.14 0.19
0.08 0.08 0.08 0.08 0.07 0.06 0.05 0.05 0.06 0.09 0.15 0.22 0.24 0.23 0.17 0.12 0.09 0.06 0.05 0.04 0.03 0.02 0.02 0.02 0.02 0.02 0.02 0.03 0.02 0.01 0.00 0.00 0.00 0.00 0.00 0.00 0.00 0.01 0.03 0.05 0.07 0.12 0.18
0.07 0.08 0.07 0.07 0.07 0.07 0.06 0.05 0.05 0.07 0.12 0.18 0.21 0.19 0.15 0.11 0.09 0.08 0.07 0.05 0.04 0.04 0.03 0.03 0.03 0.03 0.03 0.04 0.03 0.02 0.00 0.00 0.00 0.00 0.00 0.00 0.00 0.01 0.02 0.05 0.07 0.09 0.14
0.03 0.04 0.04 0.04 0.04 0.05 0.05 0.04 0.04 0.05 0.09 0.12 0.15 0.15 0.12 0.12 0.12 0.10 0.07 0.06 0.05 0.04 0.04 0.04 0.03 0.02 0.04 0.05 0.03 0.03 0.01 0.01 0.01 0.00 0.00 0.00 0.00 0.00 0.01 0.03 0.05 0.07 0.10
0.01 0.01 0.01 0.01 0.01 0.01 0.01 0.02 0.02 0.03 0.05 0.06 0.07 0.07 0.07 0.07 0.06 0.05 0.04 0.04 0.04 0.04 0.04 0.03 0.02 0.02 0.03 0.04 0.03 0.04 0.02 0.02 0.02 0.01 0.00 0.00 0.00 0.00 0.00 0.00 0.01 0.01 0.03
0.00 0.00 0.00 0.00 0.00 0.00 0.00 0.00 0.01 0.01 0.01 0.01 0.01 0.01 0.01 0.01 0.01 0.01 0.01 0.01 0.01 0.02 0.02 0.02 0.02 0.01 0.02 0.04 0.04 0.04 0.03 0.03 0.03 0.02 0.01 0.00 0.00 0.01 0.01 0.00 0.00 0.00 0.01
0.00 0.00 0.00 0.00 0.00 0.00 0.00 0.00 0.00 0.00 0.00 0.00 0.00 0.00 0.00 0.00 0.00 0.00 0.00 0.00 0.00 0.00 0.00 0.00 0.01 0.01 0.02 0.04 0.04 0.05 0.04 0.05 0.04 0.02 0.02 0.03 0.03 0.02 0.02 0.01 0.00 0.00 0.01
0.00 0.00 0.00 0.00 0.00 0.00 0.00 0.00 0.00 0.00 0.00 0.00 0.00 0.00 0.00 0.00 0.00 0.00 0.00 0.00 0.00 0.00 0.00 0.00 0.00 0.01 0.01 0.02 0.04 0.06 0.06 0.07 0.05 0.03 0.03 0.03 0.03 0.02 0.02 0.02 0.01 0.01 0.01
0.00 0.00 0.00 0.00 0.00 0.00 0.00 0.00 0.00 0.00 0.00 0.00 0.00 0.00 0.00 0.00 0.00 0.00 0.00 0.00 0.00 0.00 0.00 0.00 0.00 0.00 0.00 0.01 0.01 0.02 0.04 0.05 0.05 0.05 0.04 0.04 0.03 0.02 0.02 0.01 0.02 0.03 0.02
0.00 0.00 0.00 0.00 0.00 0.00 0.00 0.00 0.00 0.00 0.00 0.00 0.00 0.00 0.00 0.00 0.00 0.00 0.00 0.00 0.00 0.00 0.00 0.00 0.00 0.00 0.00 0.00 0.00 0.00 0.02 0.04 0.04 0.04 0.04 0.04 0.03 0.02 0.02 0.02 0.03 0.03 0.03
0.00 0.00 0.00 0.00 0.00 0.00 0.00 0.00 0.00 0.00 0.00 0.00 0.00 0.00 0.00 0.00 0.00 0.00 0.00 0.00 0.00 0.00 0.00 0.00 0.00 0.00 0.00 0.00 0.00 0.00 0.00 0.01 0.02 0.03 0.04 0.05 0.04 0.03 0.02 0.03 0.03 0.03 0.03
0.00 0.00 0.00 0.00 0.00 0.00 0.00 0.00 0.00 0.00 0.00 0.00 0.00 0.00 0.00 0.00 0.00 0.00 0.00 0.00 0.00 0.00 0.00 0.00 0.00 0.00 0.00 0.00 0.00 0.01 0.01 0.02 0.02 0.04 0.06 0.06 0.06 0.05 0.04 0.04 0.04 0.04 0.04
0.00 0.00 0.00 0.00 0.00 0.00 0.00 0.00 0.00 0.00 0.00 0.00 0.00 0.00 0.00 0.00 0.00 0.00 0.00 0.00 0.00 0.00 0.00 0.00 0.00 0.00 0.00 0.00 0.00 0.01 0.03 0.03 0.05 0.06 0.07 0.08 0.08 0.08 0.08 0.07 0.07 0.05 0.04
MSLP
1008.86 1008.22 1007.66 1007.22 1006.94 1006.85 1006.96 1007.27 1007.75 1008.36 1009.05 1009.76 1010.45 1011.07 1011.61 1012.04 1012.37 1012.61 1012.79 1012.94 1013.09 1013.26 1013.47 1013.75 1014.10 1014.50 1014.96 1015.44 1015.93 1016.38 1016.78 1017.10 1017.36 1017.54 1017.67 1017.75 1017.82 1017.87 1017.91 1017.94 1017.95 1017.93 1017.88
1008.83 1008.09 1007.42 1006.87 1006.50 1006.32 1006.38 1006.65 1007.13 1007.77 1008.52 1009.30 1010.06 1010.75 1011.34 1011.80 1012.14 1012.37 1012.53 1012.65 1012.78 1012.94 1013.16 1013.45 1013.82 1014.26 1014.74 1015.24 1015.73 1016.18 1016.58 1016.90 1017.17 1017.37 1017.53 1017.67 1017.79 1017.90 1018.01 1018.08 1018.13 1018.14 1018.10
1008.92 1008.09 1007.35 1006.74 1006.30 1006.08 1006.09 1006.35 1006.82 1007.47 1008.24 1009.05 1009.85 1010.57 1011.17 1011.64 1011.97 1012.19 1012.33 1012.43 1012.53 1012.68 1012.89 1013.18 1013.55 1013.98 1014.45 1014.93 1015.39 1015.82 1016.20 1016.53 1016.81 1017.05 1017.26 1017.46 1017.66 1017.84 1018.02 1018.16 1018.26 1018.30 1018.28
1009.13 1008.27 1007.50 1006.86 1006.42 1006.18 1006.18 1006.42 1006.89 1007.52 1008.28 1009.08 1009.86 1010.56 1011.14 1011.58 1011.89 1012.08 1012.20 1012.28 1012.37 1012.50 1012.69 1012.96 1013.29 1013.68 1014.10 1014.53 1014.95 1015.34 1015.70 1016.01 1016.31 1016.58 1016.86 1017.13 1017.40 1017.67 1017.92 1018.13 1018.28 1018.36 1018.38
1009.47 1008.62 1007.86 1007.26 1006.83 1006.62 1006.63 1006.87 1007.31 1007.91 1008.61 1009.35 1010.07 1010.71 1011.23 1011.63 1011.89 1012.06 1012.15 1012.21 1012.29 1012.39 1012.56 1012.79 1013.07 1013.40 1013.75 1014.11 1014.46 1014.80 1015.12 1015.43 1015.73 1016.04 1016.36 1016.70 1017.04 1017.38 1017.69 1017.96 1018.16 1018.28 1018.33
1009.91 1009.10 1008.41 1007.87 1007.50 1007.33 1007.37 1007.60 1008.00 1008.54 1009.16 1009.80 1010.42 1010.96 1011.39 1011.72 1011.94 1012.07 1012.14 1012.20 1012.26 1012.35 1012.50 1012.68 1012.91 1013.17 1013.45 1013.73 1014.01 1014.28 1014.56 1014.85 1015.15 1015.47 1015.82 1016.20 1016.59 1016.97 1017.33 1017.63 1017.87 1018.02 1018.10
1010.40 1009.66 1009.06 1008.61 1008.32 1008.20 1008.26 1008.48 1008.83 1009.29 1009.80 1010.31 1010.80 1011.22 1011.55 1011.80 1011.96 1012.07 1012.14 1012.19 1012.26 1012.36 1012.48 1012.64 1012.82 1013.02 1013.22 1013.42 1013.63 1013.85 1014.08 1014.34 1014.62 1014.94 1015.30 1015.68 1016.08 1016.47 1016.83 1017.15 1017.40 1017.58 1017.69
1010.89 1010.25 1009.74 1009.38 1009.17 1009.10 1009.18 1009.37 1009.66 1010.01 1010.39 1010.77 1011.11 1011.40 1011.63 1011.80 1011.92 1012.01 1012.09 1012.17 1012.26 1012.38 1012.50 1012.65 1012.79 1012.94 1013.09 1013.23 1013.38 1013.55 1013.74 1013.95 1014.21 1014.50 1014.83 1015.19 1015.55 1015.91 1016.25 1016.55 1016.81 1017.00 1017.13
1011.36 1010.80 1010.39 1010.11 1009.95 1009.92 1009.99 1010.14 1010.34 1010.58 1010.83 1011.07 1011.27 1011.44 1011.58 1011.69 1011.78 1011.88 1011.98 1012.10 1012.24 1012.38 1012.53 1012.68 1012.81 1012.93 1013.04 1013.14 1013.25 1013.38 1013.53 1013.71 1013.93 1014.18 1014.46 1014.75 1015.06 1015.36 1015.64 1015.90 1016.14 1016.33 1016.48
1011.81 1011.33 1010.98 1010.75 1010.62 1010.59 1010.63 1010.72 1010.83 1010.96 1011.08 1011.18 1011.26 1011.33 1011.40 1011.47 1011.56 1011.67 1011.82 1011.98 1012.17 1012.36 1012.54 1012.70 1012.83 1012.95 1013.04 1013.12 1013.21 1013.31 1013.44 1013.59 1013.77 1013.97 1014.18 1014.40 1014.63 1014.85 1015.06 1015.27 1015.46 1015.65 1015.82
1012.29 1011.86 1011.53 1011.31 1011.18 1011.11 1011.10 1011.10 1011.12 1011.14 1011.14 1011.14 1011.13 1011.12 1011.14 1011.19 1011.29 1011.43 1011.62 1011.84 1012.07 1012.30 1012.51 1012.69 1012.83 1012.94 1013.03 1013.11 1013.20 1013.29 1013.41 1013.54 1013.69 1013.84 1014.00 1014.15 1014.29 1014.42 1014.56 1014.71 1014.87 1015.05 1015.24
1012.84 1012.42 1012.09 1011.85 1011.67 1011.55 1011.45 1011.37 1011.30 1011.21 1011.12 1011.03 1010.95 1010.90 1010.89 1010.94 1011.05 1011.23 1011.45 1011.70 1011.97 1012.22 1012.45 1012.63 1012.77 1012.88 1012.97 1013.05 1013.14 1013.25 1013.37 1013.50 1013.63 1013.76 1013.87 1013.96 1014.03 1014.10 1014.17 1014.27 1014.39 1014.56 1014.76
1013.49 1013.06 1012.70 1012.41 1012.16 1011.96 1011.78 1011.62 1011.45 1011.29 1011.13 1010.98 1010.86 1010.78 1010.76 1010.81 1010.93 1011.12 1011.36 1011.62 1011.89 1012.14 1012.35 1012.52 1012.64 1012.74 1012.82 1012.90 1013.00 1013.12 1013.26 1013.40 1013.54 1013.66 1013.75 1013.81 1013.84 1013.86 1013.89 1013.94 1014.04 1014.19 1014.40
1014.25 1013.79 1013.38 1013.03 1012.71 1012.43 1012.17 1011.93 1011.70 1011.48 1011.27 1011.08 1010.93 1010.84 1010.81 1010.86 1010.98 1011.17 1011.39 1011.63 1011.87 1012.08 1012.25 1012.38 1012.46 1012.52 1012.58 1012.66 1012.76 1012.89 1013.05 1013.22 1013.38 1013.51 1013.61 1013.66 1013.68 1013.68 1013.68 1013.71 1013.79 1013.93 1014.14
1015.07 1014.58 1014.13 1013.71 1013.33 1012.99 1012.67 1012.38 1012.10 1011.84 1011.60 1011.40 1011.24 1011.14 1011.10 1011.14 1011.24 1011.39 1011.57 1011.76 1011.94 1012.08 1012.18 1012.23 1012.26 1012.27 1012.29 1012.34 1012.43 1012.57 1012.75 1012.94 1013.13 1013.30 1013.42 1013.49 1013.52 1013.51 1013.51 1013.53 1013.60 1013.73 1013.93
1015.89 1015.37 1014.88 1014.43 1014.01 1013.63 1013.28 1012.95 1012.66 1012.39 1012.14 1011.94 1011.77 1011.66 1011.61 1011.62 1011.68 1011.78 1011.90 1012.02 1012.11 1012.16 1012.17 1012.14 1012.09 1012.03 1012.00 1012.01 1012.08 1012.21 1012.40 1012.61 1012.83 1013.02 1013.18 1013.27 1013.32 1013.34 1013.34 1013.36 1013.42 1013.54 1013.72
1016.60 1016.08 1015.58 1015.11 1014.68 1014.30 1013.94 1013.63 1013.34 1013.08 1012.85 1012.65 1012.48 1012.36 1012.28 1012.25 1012.26 1012.30 1012.35 1012.38 1012.38 1012.34 1012.26 1012.14 1012.00 1011.88 1011.78 1011.74 1011.78 1011.88 1012.06 1012.27 1012.50 1012.72 1012.90 1013.03 1013.10 1013.14 1013.15 1013.17 1013.22 1013.33 1013.49
1017.13 1016.62 1016.13 1015.69 1015.28 1014.92 1014.60 1014.32 1014.06 1013.83 1013.62 1013.44 1013.27 1013.14 1013.04 1012.97 1012.93 1012.90 1012.87 1012.83 1012.75 1012.63 1012.47 1012.28 1012.07 1011.87 1011.71 1011.62 1011.60 1011.66 1011.80 1011.99 1012.21 1012.43 1012.62 1012.76 1012.86 1012.91 1012.94 1012.96 1013.00 1013.09 1013.22
1017.44 1016.95 1016.50 1016.10 1015.74 1015.44 1015.17 1014.94 1014.74 1014.55 1014.37 1014.20 1014.05 1013.90 1013.78 1013.68 1013.59 1013.51 1013.43 1013.33 1013.20 1013.03 1012.82 1012.57 1012.31 1012.06 1011.84 1011.68 1011.60 1011.60 1011.68 1011.82 1012.01 1012.20 1012.38 1012.52 1012.62 1012.68 1012.72 1012.74 1012.77 1012.84 1012.94
1017.54 1017.09 1016.69 1016.34 1016.04 1015.80 1015.60 1015.44 1015.30 1015.16 1015.02 1014.87 1014.73 1014.58 1014.44 1014.32 1014.20 1014.09 1013.98 1013.85 1013.70 1013.50 1013.27 1013.00 1012.71 1012.42 1012.16 1011.94 1011.79 1011.72 1011.72 1011.79 1011.91 1012.05 1012.19 1012.32 1012.41 1012.48 1012.51 1012.54 1012.57 1012.62 1012.70
1017.50 1017.08 1016.72 1016.42 1016.19 1016.01 1015.88 1015.78 1015.70 1015.61 1015.51 1015.40 1015.27 1015.13 1014.99 1014.86 1014.73 1014.62 1014.50 1014.37 1014.22 1014.03 1013.80 1013.54 1013.24 1012.93 1012.63 1012.36 1012.14 1011.99 1011.91 1011.89 1011.93 1012.00 1012.09 1012.18 1012.26 1012.32 1012.36 1012.39 1012.42 1012.46 1012.53
1017.38 1016.99 1016.66 1016.41 1016.22 1016.10 1016.02 1015.98 1015.94 1015.90 1015.85 1015.76 1015.66 1015.54 1015.42 1015.29 1015.18 1015.07 1014.96 1014.85 1014.72 1014.57 1014.37 1014.12 1013.83 1013.52 1013.20 1012.88 1012.60 1012.37 1012.19 1012.08 1012.03 1012.03 1012.06 1012.12 1012.18 1012.23 1012.28 1012.32 1012.36 1012.42 1012.48
1017.28 1016.90 1016.59 1016.35 1016.19 1016.10 1016.06 1016.05 1016.06 1016.06 1016.04 1016.00 1015.93 1015.84 1015.74 1015.63 1015.54 1015.45 1015.37 1015.29 1015.20 1015.07 1014.91 1014.69 1014.42 1014.11 1013.78 1013.43 1013.09 1012.78 1012.53 1012.33 1012.20 1012.13 1012.11 1012.12 1012.17 1012.22 1012.29 1012.35 1012.42 1012.49 1012.56
1017.25 1016.87 1016.55 1016.31 1016.15 1016.07 1016.04 1016.05 1016.09 1016.12 1016.14 1016.13 1016.10 1016.04 1015.98 1015.90 1015.84 1015.78 1015.73 1015.67 1015.61 1015.51 1015.38 1015.19 1014.94 1014.64 1014.30 1013.93 1013.55 1013.19 1012.88 1012.61 1012.42 1012.29 1012.22 1012.22 1012.25 1012.32 1012.40 1012.50 1012.59 1012.68 1012.78
1017.31 1016.91 1016.57 1016.31 1016.13 1016.02 1015.99 1016.00 1016.05 1016.11 1016.16 1016.19 1016.20 1016.19 1016.17 1016.13 1016.09 1016.06 1016.03 1015.99 1015.94 1015.87 1015.75 1015.58 1015.35 1015.06 1014.73 1014.35 1013.96 1013.57 1013.22 1012.91 1012.68 1012.51 1012.42 1012.41 1012.44 1012.53 1012.64 1012.76 1012.88 1013.00 1013.11
1017.45 1017.01 1016.64 1016.34 1016.12 1015.98 1015.92 1015.92 1015.97 1016.05 1016.13 1016.20 1016.26 1016.30 1016.32 1016.32 1016.31 1016.30 1016.28 1016.25 1016.21 1016.14 1016.03 1015.87 1015.65 1015.38 1015.06 1014.69 1014.31 1013.92 1013.57 1013.26 1013.01 1012.84 1012.74 1012.72 1012.77 1012.87 1013.00 1013.15 1013.29 1013.43 1013.54
Thickness
5783 5790 5796 5799 5798 5796 5792 5788 5782 5777 5772 5764 5758 5753 5751 5750 5749 5748 5746 5744 5742 5739 5736 5734 5730 5727 5723 5720 5717 5713 5709 5705 5703 5699 5695 5696 5697 5697 5698 5699 5699 5699 5699
5773 5782 5789 5794 5796 5796 5794 5790 5783 5776 5770 5764 5758 5752 5749 5746 5745 5744 5743 5742 5740 5737 5735 5731 5728 5725 5720 5716 5713 5708 5703 5700 5699 5694 5688 5685 5687 5691 5694 5694 5694 5694 5694
5762 5773 5782 5788 5791 5792 5792 5788 5782 5774 5767 5760 5751 5745 5741 5739 5737 5736 5737 5738 5737 5735 5733 5730 5726 5723 5718 5714 5710 5706 5701 5696 5693 5692 5688 5681 5678 5681 5686 5689 5691 5691 5690
5752 5764 5773 5780 5784 5787 5787 5782 5776 5767 5759 5753 5743 5736 5732 5730 5731 5732 5732 5732 5732 5730 5728 5725 5723 5719 5716 5712 5709 5705 5700 5695 5690 5687 5686 5685 5683 5677 5677 5682 5685 5687 5687
5740 5752 5762 5769 5774 5776 5774 5771 5765 5758 5751 5743 5735 5730 5726 5726 5726 5727 5726 5726 5725 5724 5723 5721 5718 5715 5712 5709 5706 5703 5698 5694 5689 5685 5682 5679 5678 5677 5674 5673 5678 5681 5684
5727 5738 5748 5754 5758 5761 5759 5757 5753 5747 5742 5734 5727 5723 5720 5719 5720 5720 5720 5719 5719 5718 5718 5716 5713 5710 5708 5705 5702 5699 5695 5692 5688 5685 5682 5677 5674 5673 5672 5671 5672 5674 5679
5711 5721 5729 5734 5738 5741 5742 5741 5739 5735 5730 5724 5719 5717 5715 5715 5715 5715 5715 5714 5712 5712 5713 5711 5708 5706 5704 5702 5699 5695 5692 5688 5685 5683 5680 5678 5676 5674 5673 5671 5669 5670 5673
5697 5706 5712 5718 5722 5724 5725 5725 5726 5722 5718 5715 5711 5711 5710 5710 5710 5710 5710 5709 5708 5708 5709 5706 5703 5702 5700 5697 5694 5690 5687 5685 5682 5680 5678 5675 5674 5673 5672 5671 5667 5665 5667
5686 5693 5700 5705 5708 5710 5712 5712 5711 5708 5707 5706 5705 5704 5706 5706 5705 5705 5705 5704 5704 5704 5703 5700 5698 5696 5695 5692 5689 5685 5682 5681 5678 5676 5674 5672 5671 5671 5670 5670 5669 5665 5662
5677 5683 5689 5693 5697 5700 5703 5703 5701 5698 5698 5699 5700 5701 5702 5702 5701 5700 5700 5700 5700 5699 5696 5693 5692 5690 5688 5686 5683 5680 5678 5676 5674 5672 5671 5669 5669 5668 5668 5668 5668 5668 5666
5669 5675 5680 5684 5688 5691 5693 5692 5693 5692 5694 5696 5696 5697 5698 5698 5698 5697 5697 5696 5695 5693 5690 5688 5686 5684 5681 5679 5677 5674 5673 5671 5670 5669 5668 5667 5667 5666 5666 5667 5667 5666 5666
5665 5668 5672 5677 5679 5682 5686 5688 5690 5691 5693 5695 5695 5695 5695 5695 5694 5693 5692 5691 5689 5688 5686 5683 5680 5678 5676 5673 5671 5669 5668 5666 5665 5664 5664 5664 5664 5665 5665 5666 5666 5666 5666
5659 5664 5667 5670 5673 5677 5682 5686 5690 5692 5695 5695 5695 5694 5693 5692 5690 5689 5688 5687 5685 5683 5681 5678 5675 5673 5671 5669 5666 5665 5663 5662 5661 5661 5660 5661 5661 5662 5663 5665 5666 5666 5666
5652 5657 5661 5666 5670 5675 5680 5685 5689 5692 5693 5693 5692 5692 5691 5689 5688 5687 5685 5682 5680 5678 5676 5674 5671 5669 5667 5664 5662 5660 5659 5658 5657 5657 5657 5657 5658 5659 5660 5662 5663 5664 5664
5647 5651 5656 5660 5666 5671 5676 5681 5685 5687 5689 5688 5686 5685 5685 5684 5683 5682 5680 5678 5676 5675 5672 5669 5667 5665 5662 5661 5659 5657 5655 5653 5653 5653 5653 5654 5655 5657 5658 5659 5660 5660 5661
5641 5645 5650 5655 5659 5664 5668 5672 5676 5678 5680 5679 5677 5677 5678 5677 5675 5675 5673 5672 5671 5670 5668 5665 5663 5660 5659 5659 5657 5654 5652 5650 5649 5649 5649 5649 5651 5652 5655 5656 5657 5657 5656
5636 5640 5644 5647 5651 5654 5657 5660 5664 5667 5668 5668 5668 5668 5668 5667 5666 5665 5665 5664 5663 5662 5660 5659 5657 5655 5654 5654 5654 5652 5649 5647 5646 5645 5644 5645 5647 5648 5648 5650 5652 5652 5653
5634 5637 5640 5644 5646 5649 5652 5654 5656 5658 5658 5658 5658 5658 5658 5657 5657 5656 5656 5655 5654 5653 5653 5652 5651 5650 5649 5649 5649 5649 5646 5644 5642 5641 5641 5640 5641 5642 5643 5643 5644 5645 5647
5635 5637 5640 5642 5643 5645 5647 5648 5649 5650 5651 5650 5650 5650 5649 5649 5649 5648 5647 5646 5645 5645 5644 5643 5643 5642 5642 5644 5644 5644 5641 5639 5638 5637 5637 5636 5637 5639 5639 5638 5638 5639 5641
5638 5640 5641 5642 5643 5643 5644 5645 5645 5645 5644 5643 5643 5642 5642 5641 5640 5639 5638 5637 5636 5635 5635 5633 5633 5633 5633 5635 5637 5638 5635 5633 5632 5632 5632 5632 5632 5634 5635 5633 5633 5633 5635
5642 5643 5643 5642 5642 5642 5643 5642 5641 5640 5638 5637 5636 5635 5634 5633 5631 5629 5627 5626 5625 5624 5623 5622 5622 5622 5623 5625 5627 5628 5626 5625 5625 5624 5624 5626 5628 5629 5630 5630 5629 5630 5630
5642 5643 5641 5640 5641 5640 5639 5637 5635 5634 5634 5632 5630 5628 5625 5624 5622 5619 5617 5615 5614 5613 5612 5612 5611 5612 5612 5614 5616 5617 5618 5618 5617 5616 5617 5618 5620 5623 5624 5625 5625 5625 5625
5641 5642 5640 5639 5639 5638 5636 5634 5633 5632 5630 5627 5624 5621 5618 5615 5612 5610 5608 5606 5605 5604 5603 5603 5602 5602 5603 5604 5606 5606 5607 5607 5607 5607 5609 5610 5611 5613 5615 5617 5618 5619 5618
5642 5642 5641 5639 5638 5638 5637 5635 5633 5631 5628 5624 5620 5617 5614 5610 5607 5604 5602 5600 5599 5597 5596 5596 5596 5596 5596 5597 5597 5597 5596 5596 5597 5597 5598 5600 5601 5602 5604 5606 5608 5609 5610
5642 5642 5641 5640 5640 5640 5638 5637 5634 5630 5626 5623 5619 5616 5612 5608 5604 5601 5598 5596 5594 5592 5591 5590 5590 5590 5590 5589 5589 5589 5588 5587 5587 5588 5589 5590 5591 5592 5594 5596 5598 5600 5602
5643 5644 5644 5644 5644 5642 5641 5639 5636 5632 5628 5624 5620 5616 5613 5609 5604 5600 5597 5594 5592 5590 5589 5588 5587 5586 5586 5586 5586 5585 5584 5583 5583 5582 5581 5581 5582 5584 5587 5589 5591 5592 5593